• Join FlightAware (Why Join?)
  • Login
  • US Flag 
04:41AM EDT


 

Airport Tracker/Info


-or-


 

Live Flight TrackerFlight Track Log ✈ N485R ✈ 15-Jun-2013 ✈ KSYR - KMSS

Flight Track Log - Related Links

Times and Time Zones

All times are in EDT time to prevent confusion due to time zone crossing. See the N485R flight status page for this flight to view local times or setup timezone preferences in your user account.

Time Position Orientation Groundspeed Altitude Reporting Facility
EDT Latitude Longitude Course Direction KTS MPH feet Rate Location/Type
11:34PM 43.1067 -76.1631 291° West 137 158 1,600  Level Boston Center
11:35PM 43.1122 -76.1833 291° West 137 158 2,200 1,140 Climbing Boston Center
11:36PM 43.1711 -76.1669 11° North 204 235 3,600 1,140 Climbing Boston Center
11:37PM 43.2161 -76.1269 33° Northeast 204 235 4,800 1,200 Climbing Boston Center
11:38PM 43.2650 -76.0958 25° Northeast 199 229 6,000 1,200 Climbing Boston Center
11:39PM 43.3100 -76.0642 27° Northeast 189 217 7,200 1,080 Climbing Boston Center
11:40PM 43.3547 -76.0297 29° Northeast 184 212 8,200 1,140 Climbing Boston Center
11:41PM 43.4017 -75.9953 28° Northeast 184 212 9,500 1,260 Climbing Boston Center
11:42PM 43.4508 -75.9611 27° Northeast 184 212 10,800 1,320 Climbing Boston Center
11:43PM 43.4978 -75.9267 28° Northeast 184 212 12,200 1,320 Climbing Boston Center
11:44PM 43.5444 -75.8919 28° Northeast 238 274 13,500 1,200 Climbing Boston Center
11:45PM 43.5894 -75.8544 31° Northeast 208 239 14,600 1,080 Climbing Boston Center
11:46PM 43.6364 -75.8169 30° Northeast 195 224 15,700 1,080 Climbing Boston Center
11:47PM 43.6792 -75.7792 33° Northeast 190 219 16,800 660 Climbing Boston Center
11:48PM 43.7264 -75.7386 32° Northeast 190 219 17,100 120 Climbing Boston Center
11:49PM 43.7819 -75.6869 34° Northeast 256 295 17,100  Level Boston Center
11:50PM 43.8356 -75.6294 38° Northeast 246 283 17,100  Level Boston Center
11:51PM 43.8956 -75.5778 32° Northeast 246 283 17,100 -60 Level Boston Center
11:52PM 43.9533 -75.5203 36° Northeast 246 283 17,000 -60 Descending Boston Center
11:53PM 44.0111 -75.4656 34° Northeast 246 283 17,000 -60 Level Boston Center
11:54PM 44.0600 -75.4247 31° Northeast 246 283 16,900 -540 Descending Boston Center
11:55PM 44.1350 -75.3503 35° Northeast 251 289 16,000 -780 Descending Boston Center
11:56PM 44.1989 -75.2925 33° Northeast 262 302 15,300 -780 Descending Boston Center
11:57PM 44.2733 -75.2267 32° Northeast 268 308 14,400 -780 Descending Boston Center
11:58PM 44.3353 -75.1686 34° Northeast 268 308 13,800 -900 Descending Boston Center
11:59PM 44.3969 -75.1189 30° Northeast 263 303 12,700 -1,260 Descending Boston Center
12:01AM 44.4747 -75.0847 17° North 250 288 10,900 -1,500 Descending Boston Center
12:02AM 44.5589 -75.0447 19° North 250 288 9,100 -1,800 Descending Boston Center